Dewpoint
39 40 44 45 45 47 46 45 47 49 49 50 50 50 51 51 53 52 52 50 54 57 55 57 57 55 50 42 37 39 39 42 34 28 26 21 20 17 13 11 11 15 10 12 11 13 13
41 38 38 41 43 43 44 42 43 46 48 50 50 51 51 52 52 52 51 51 50 57 55 57 57 54 48 39 38 39 38 36 30 27 22 20 19 17 15 12 11 13 13 10 13 12 13
41 43 37 37 40 42 42 43 43 43 44 46 50 50 51 51 52 53 52 51 51 52 56 57 56 52 47 40 39 39 38 35 34 32 26 22 21 19 16 14 15 18 16 10 9 10 9
37 40 42 39 38 41 42 43 44 44 44 44 46 50 50 50 52 53 52 51 51 51 56 57 55 51 43 40 43 42 42 40 37 33 30 28 26 22 18 20 19 14 11 6 2 5 7
36 37 41 42 39 39 41 42 44 44 44 45 46 48 50 50 51 52 52 51 50 51 53 56 53 49 35 41 41 42 41 36 35 33 31 29 27 22 19 17 13 10 3 3 0 6 5
42 36 39 41 37 37 39 41 44 44 45 45 45 47 50 50 51 52 51 51 48 51 54 55 51 44 39 32 37 39 38 39 35 31 29 28 23 19 19 15 3 2 4 4 -1 4 7
41 41 37 39 36 36 39 42 43 44 45 46 46 46 47 50 50 52 50 44 39 44 50 46 44 40 28 31 36 36 36 35 36 31 26 26 20 14 14 13 8 3 1 1 3 2 7
40 40 40 38 36 37 40 43 42 44 46 47 48 47 46 47 50 51 47 39 32 48 45 48 43 43 37 36 34 35 35 33 34 29 26 23 20 17 14 11 10 11 6 5 3 1 5
35 37 40 38 36 37 40 42 43 45 46 48 49 48 47 46 50 49 45 40 37 50 44 44 47 42 40 37 32 34 33 32 29 28 25 21 18 20 16 12 10 11 9 7 3 3 6
35 38 40 39 36 38 40 41 43 44 46 47 48 49 48 46 48 46 44 42 39 48 36 37 41 45 41 36 33 33 33 30 26 24 24 22 20 16 18 13 12 10 10 7 6 5 1
35 35 40 40 38 38 39 40 42 44 45 46 48 49 48 47 46 44 42 43 40 44 22 26 37 42 41 38 33 33 34 31 25 23 24 22 20 18 16 14 13 12 9 7 7 10 6
37 35 36 39 39 38 39 40 43 44 45 46 48 50 48 47 48 42 43 42 42 30 21 25 35 38 37 39 36 26 28 31 25 22 23 21 20 19 18 17 15 14 12 14 11 9 5
38 36 34 34 36 38 38 40 42 43 44 45 47 49 47 47 44 45 44 43 31 21 26 21 35 37 36 35 35 27 28 27 23 20 18 19 18 19 19 16 17 14 15 11 9 9 6
38 36 36 34 34 37 38 39 41 43 43 44 46 48 47 47 48 47 44 37 23 24 19 28 30 38 35 33 33 30 25 26 24 19 14 14 14 17 20 17 14 14 15 9 5 5 3
36 35 36 36 35 37 38 40 41 42 43 44 46 46 46 47 49 47 41 27 27 20 19 14 30 34 36 33 32 31 23 26 24 19 12 11 12 15 17 19 14 13 15 15 7 5 4
37 35 35 35 37 37 38 40 41 42 42 43 44 42 42 48 49 45 36 30 32 21 16 17 13 32 35 35 31 31 26 25 24 24 18 13 8 11 14 19 17 12 18 14 13 12 10
35 35 35 35 35 35 37 38 40 41 42 44 44 39 40 49 48 40 30 31 30 26 21 15 21 20 20 32 32 31 29 24 25 22 21 17 16 7 11 17 15 12 13 15 13 14 7
35 35 35 35 35 35 37 38 39 41 42 40 41 33 44 49 36 34 31 34 31 25 23 24 30 33 31 29 31 31 28 28 25 23 21 21 18 14 10 15 17 13 13 14 16 13 14
34 35 35 35 36 36 36 38 38 40 41 39 33 35 43 46 30 30 34 34 30 25 24 25 32 36 34 34 35 36 29 28 28 23 22 23 20 16 12 14 18 16 15 14 16 17 12
34 34 35 36 37 37 37 37 38 39 40 39 32 30 36 40 37 34 31 32 30 28 23 23 24 30 31 34 35 37 34 27 28 24 26 27 23 19 13 17 19 18 14 14 16 21 19
35 35 35 37 37 39 38 37 38 39 40 39 32 31 36 30 31 32 33 32 30 25 26 24 23 29 32 31 34 35 35 31 25 27 26 29 25 22 19 14 16 20 18 16 15 18 19
35 36 36 37 39 38 36 37 38 38 40 39 32 31 35 34 33 33 34 32 28 27 26 27 28 27 28 30 31 32 35 31 25 25 23 32 28 27 21 21 12 11 18 19 15 14 14
34 35 36 38 39 37 36 36 38 40 41 38 38 38 38 33 34 32 32 31 29 26 26 27 28 28 26 28 29 32 36 36 36 27 26 31 29 27 25 21 22 18 13 10 19 19 16
35 35 36 37 38 37 35 37 40 41 43 42 39 36 34 30 33 31 29 29 28 27 28 25 26 26 29 31 31 36 36 35 38 37 28 31 30 27 28 26 23 24 18 16 14 19 22
35 36 37 38 38 37 36 38 41 42 43 43 41 37 35 31 34 31 29 28 29 28 28 27 27 27 30 33 32 32 32 34 35 39 30 32 31 30 31 28 22 22 20 18 19 20 21
36 38 39 38 37 38 38 40 41 42 43 45 42 40 38 33 31 36 29 29 29 29 29 30 30 30 33 33 32 26 26 31 34 36 30 30 32 31 35 28 24 23 22 22 23 22 22
38 40 39 37 38 38 39 41 41 41 42 44 42 46 41 35 33 36 34 32 31 32 33 33 32 32 36 35 30 30 29 35 28 27 31 28 30 30 32 30 24 23 23 25 28 28 32
39 40 39 38 39 39 40 41 40 40 39 43 41 43 43 37 35 37 37 35 34 32 30 30 31 34 34 32 31 32 32 32 30 30 31 33 32 30 32 30 26 22 21 22 30 31 30
39 40 39 39 39 39 40 41 40 39 37 41 38 41 42 38 37 39 38 37 36 35 31 30 34 35 36 33 33 35 32 35 34 32 34 32 33 31 30 31 29 29 27 29 32 31 30
Wind_Speed
18 19 19 19 18 17 16 18 17 17 20 21 19 17 17 18 16 14 14 16 18 18 13 10 7 8 10 13 17 12 4 8 11 8 11 13 14 15 19 16 16 14 20 10 13 9 12
19 19 19 20 19 19 18 19 19 19 20 20 21 21 17 18 18 16 15 16 15 16 15 11 8 5 10 23 13 4 6 10 9 8 10 11 12 12 15 18 13 7 13 13 15 13 15
20 22 19 18 20 21 20 21 20 20 20 21 21 22 21 18 19 17 16 15 17 15 16 12 9 10 18 23 6 6 6 7 6 9 9 8 8 10 6 12 15 11 14 18 21 18 17
21 20 22 21 18 18 21 23 22 22 22 22 22 22 22 21 19 18 16 15 15 15 16 13 10 15 22 16 28 26 16 15 12 11 10 5 8 12 12 3 7 15 18 20 22 24 17
21 22 23 22 21 20 22 25 24 24 24 23 22 21 23 22 19 19 16 14 15 14 17 13 10 15 21 14 29 21 21 17 13 13 10 4 10 15 13 16 18 20 19 22 18 13 12
22 22 20 22 24 23 25 27 26 26 25 23 22 21 19 22 20 19 16 12 11 9 14 17 10 11 22 24 17 23 26 22 14 12 14 14 11 16 20 22 27 23 22 21 21 15 13
23 23 22 21 25 26 27 28 26 27 26 26 24 22 19 21 22 18 15 8 10 8 16 17 15 17 9 31 13 23 20 27 22 18 23 21 22 29 28 26 25 25 15 19 16 9 8
21 22 23 23 25 27 28 28 27 27 27 28 26 24 21 17 23 21 21 28 22 6 7 32 25 34 30 5 21 21 25 24 27 30 23 26 34 28 23 24 23 25 25 24 18 21 15
23 22 23 24 25 26 27 28 29 28 28 30 25 26 24 21 22 24 30 39 24 6 8 11 33 28 28 15 20 24 26 32 34 32 34 34 19 30 27 26 24 27 27 23 22 15 15
23 21 24 24 25 25 27 29 29 29 26 22 26 24 25 21 21 28 37 29 24 16 8 7 23 31 26 31 33 28 32 30 28 39 37 36 33 18 32 32 27 29 23 22 23 21 23
22 23 23 24 26 24 26 27 29 30 25 25 32 26 28 31 10 33 14 31 21 6 12 13 34 13 24 35 10 37 25 33 33 34 27 44 34 36 32 31 27 28 20 22 19 22 24
22 23 24 23 25 25 26 27 30 28 26 25 32 24 31 25 30 30 29 26 14 14 19 9 12 23 38 43 40 20 35 31 27 30 33 37 30 26 42 30 25 20 18 15 18 20 30
21 23 23 25 26 27 27 28 28 28 26 26 30 20 35 23 47 25 24 23 21 17 17 21 14 29 44 46 45 37 42 40 38 38 40 35 42 27 21 30 31 26 18 17 18 24 36
20 22 23 23 26 27 28 28 27 28 26 27 29 20 29 28 26 24 25 20 15 20 41 11 20 27 42 43 45 48 41 39 43 35 33 37 33 44 25 34 31 36 31 22 26 23 32
20 21 23 24 24 27 28 28 29 28 26 23 27 21 24 24 25 22 21 32 20 27 40 40 14 32 36 41 29 44 49 48 46 47 42 38 42 35 37 26 32 30 39 42 30 30 22
21 20 22 23 25 26 27 28 29 29 27 28 10 17 25 22 25 23 28 25 20 30 27 42 49 22 17 39 39 43 51 47 50 50 41 38 32 40 37 27 40 35 30 29 26 23 30
22 22 23 24 24 26 27 28 28 29 30 35 16 12 12 25 23 21 32 17 24 36 35 41 37 40 46 34 39 42 41 46 53 49 49 40 33 28 33 36 37 30 33 32 28 28 26
21 23 23 24 25 25 26 26 27 27 27 17 7 10 6 27 25 9 25 24 27 36 40 31 11 17 30 27 36 48 45 53 39 50 52 48 27 30 42 35 33 35 37 37 27 43 28
21 23 23 24 25 25 24 25 25 23 19 3 6 2 4 27 25 22 13 11 37 37 33 37 23 12 14 34 12 31 52 46 52 48 46 43 32 26 29 28 33 43 45 40 35 28 29
22 24 25 25 25 25 24 22 23 22 18 4 3 6 6 12 20 26 23 23 26 41 39 38 30 24 26 20 30 13 40 47 38 42 45 39 30 42 44 42 35 37 39 39 38 35 34
22 24 26 26 26 26 22 23 21 21 18 2 5 6 8 10 20 15 26 22 38 29 31 28 34 33 21 17 14 29 32 46 38 38 41 35 43 34 38 39 40 35 38 40 40 40 39
24 26 27 27 27 23 22 22 23 22 21 10 6 5 6 13 20 29 26 25 34 40 27 34 30 37 33 34 21 11 29 37 35 36 34 35 39 38 37 43 43 46 45 44 44 44 47
26 27 28 27 27 23 23 23 24 27 24 9 13 13 6 13 20 25 27 34 39 41 37 38 34 36 37 36 30 35 41 41 43 38 34 40 37 32 42 41 44 45 38 41 42 43 40
27 28 29 29 28 25 23 24 25 28 28 19 11 14 12 14 25 33 32 40 33 37 36 34 38 35 31 30 25 21 28 44 40 41 37 40 41 33 23 34 40 28 40 37 33 38 41
28 29 29 30 26 23 22 24 26 28 28 18 11 16 13 12 21 30 32 33 38 34 31 33 36 31 32 25 23 18 22 28 45 48 41 41 41 21 22 25 13 26 34 42 41 43 35
28 31 29 25 23 21 21 23 26 28 26 12 9 18 13 17 12 18 27 26 22 23 24 28 31 30 26 24 23 28 26 26 21 18 41 42 40 29 19 25 25 20 35 39 35 39 36
30 29 25 22 21 20 21 23 25 25 27 13 2 7 9 5 10 10 6 11 9 9 8 17 26 30 26 32 28 27 34 11 18 28 22 38 38 42 32 18 20 23 30 26 33 18 27
29 26 22 21 20 20 21 23 25 24 23 14 2 8 4 4 6 8 10 8 6 7 12 23 20 23 22 36 24 9 21 32 25 30 35 25 27 26 35 29 27 27 30 35 20 22 10
27 22 20 20 19 20 22 23 22 22 19 15 4 5 7 2 2 2 4 5 5 8 6 4 22 21 24 17 13 12 12 11 16 24 33 27 22 26 25 30 15 26 33 20 18 19 16
Wind_Direction
322 321 329 324 326 327 326 328 324 316 307 276 274 268 266 270 262 265 275 285 305 258 233 237 250 292 298 236 246 127 319 248 258 234 234 229 234 235 243 244 241 235 261 227 256 240 259
317 318 318 323 322 321 315 317 317 313 315 304 267 264 260 257 258 256 267 282 294 267 240 231 233 273 243 250 249 317 297 284 256 253 230 233 238 260 269 261 238 296 258 258 249 246 250
323 315 312 312 313 317 317 313 308 305 306 306 290 259 258 252 250 247 255 272 283 298 251 221 224 235 248 236 223 213 219 270 289 282 264 233 266 237 227 250 235 259 251 251 244 238 243
311 312 309 310 307 310 313 311 304 298 299 297 292 268 253 254 245 237 244 264 278 287 275 219 222 240 248 250 249 258 258 253 255 254 251 282 252 253 248 274 232 236 235 255 246 220 218
310 307 319 312 311 310 308 305 296 295 292 288 283 283 250 250 240 231 238 257 273 283 294 203 216 228 245 200 231 238 233 236 231 226 236 248 241 235 210 233 238 224 244 229 238 200 215
311 307 314 311 310 310 303 302 297 295 290 285 276 273 266 237 239 221 230 250 275 317 259 203 244 208 248 229 216 223 226 231 230 217 219 217 219 225 224 216 228 228 224 239 252 176 214
321 307 310 308 310 308 301 302 297 292 291 284 271 263 263 245 227 210 213 236 236 240 225 193 187 217 54 213 211 217 219 205 214 223 216 203 216 220 224 221 240 257 270 273 234 202 205
315 313 313 311 310 306 305 304 299 295 293 286 269 255 252 255 225 204 217 222 220 45 254 221 239 216 249 203 205 224 197 202 201 216 214 222 224 227 229 238 232 248 257 248 256 267 239
312 312 314 309 311 304 308 312 304 300 294 289 272 249 240 235 224 210 216 224 226 33 267 207 225 236 219 194 217 205 200 205 204 211 215 219 222 222 238 231 234 236 244 244 253 259 230
313 314 314 308 311 311 314 310 311 307 299 304 292 261 227 220 213 213 224 220 228 80 271 230 214 233 228 223 233 243 199 206 222 216 217 228 231 230 215 229 224 238 232 250 262 267 261
317 311 316 310 313 316 315 312 312 311 301 296 300 253 209 205 196 205 196 212 206 91 232 227 208 187 192 204 171 209 211 216 217 214 212 226 225 225 227 226 224 243 247 253 256 262 268
315 316 314 319 323 319 320 319 319 316 309 305 301 246 199 210 218 219 203 175 155 189 217 229 179 191 195 205 219 211 205 213 221 226 223 234 223 224 230 225 231 231 234 249 246 255 257
315 316 318 316 320 323 322 322 321 316 319 311 312 225 190 195 213 201 176 145 188 207 211 222 194 186 197 203 209 217 193 200 201 207 219 222 228 211 228 232 215 224 206 218 232 230 248
313 319 321 320 317 323 323 322 319 318 320 316 320 199 201 219 207 188 170 189 200 189 207 179 207 201 205 206 209 208 198 204 208 206 213 215 219 221 201 229 213 212 205 217 222 237 254
320 322 319 321 320 320 322 321 320 319 323 318 315 207 218 214 202 187 189 208 204 191 210 216 202 203 211 216 208 208 213 204 203 208 214 211 227 204 209 212 227 200 216 226 251 272 278
319 322 320 319 318 321 323 321 322 323 327 320 267 202 222 203 195 189 200 207 203 215 208 218 220 196 217 213 216 203 210 208 211 210 215 227 224 221 197 205 227 220 213 221 230 246 244
326 322 320 318 319 322 324 325 324 327 332 320 206 195 207 181 181 198 205 207 206 214 227 210 218 234 238 225 216 221 210 216 209 212 214 217 226 217 204 202 208 212 225 217 224 230 239
327 321 322 324 322 321 323 325 324 332 348 9 341 196 183 161 195 202 212 214 205 210 219 227 246 253 233 234 242 220 218 217 216 216 208 212 220 229 211 213 212 215 216 213 215 225 232
326 321 322 320 319 319 321 323 322 329 346 350 309 322 228 178 211 209 216 200 217 215 209 212 212 223 233 236 252 258 220 222 220 205 216 202 213 211 208 208 204 222 214 220 220 231 232
328 324 321 318 317 315 315 319 317 321 325 150 281 211 206 217 212 222 209 200 202 219 221 222 220 229 245 249 253 273 234 232 224 227 217 200 212 213 208 204 200 211 221 215 216 220 229
328 322 320 317 316 314 313 315 314 313 311 239 214 250 221 206 214 188 192 201 205 205 218 229 224 220 221 233 269 256 262 237 220 229 209 202 216 213 229 218 209 211 220 222 221 221 221
326 323 319 316 315 318 319 313 309 307 301 261 227 223 275 238 187 195 190 199 204 208 194 218 229 223 227 231 222 263 266 235 230 223 207 205 214 222 223 232 228 221 214 221 229 225 232
325 322 320 319 318 321 317 312 311 306 299 246 202 229 248 230 204 191 209 200 205 211 217 220 223 232 229 231 230 236 257 268 273 224 212 204 207 211 230 226 232 246 231 224 220 229 232
323 322 322 321 321 321 318 314 313 308 303 285 204 203 207 231 216 214 211 216 218 217 221 220 225 236 240 241 247 248 257 266 264 270 209 203 202 212 221 229 231 235 233 225 235 223 229
324 323 323 322 326 323 320 321 318 318 316 306 193 195 209 214 212 217 217 213 221 234 237 240 237 237 242 240 244 242 249 262 260 253 205 200 201 201 212 209 214 216 218 223 219 229 231
324 323 325 331 332 328 327 326 326 327 333 309 218 208 215 208 217 233 204 205 213 223 235 242 246 247 245 228 223 232 235 242 207 204 214 197 204 200 197 222 214 208 215 219 229 237 233
326 327 331 338 338 336 335 336 336 336 339 325 291 236 211 195 207 187 229 226 206 203 237 252 249 246 228 228 219 224 228 245 202 201 194 191 197 206 213 214 228 212 220 209 202 215 219
329 332 335 340 341 341 343 344 346 343 345 350 358 329 304 208 201 187 184 193 212 207 238 259 280 241 221 219 217 204 226 209 217 203 199 189 194 208 219 222 232 219 228 227 216 216 223
333 338 339 343 346 342 338 342 348 343 343 343 304 351 329 229 28 31 224 216 212 246 242 248 257 211 199 194 213 238 235 189 189 209 191 197 200 198 209 220 231 230 250 238 229 250 247